Orbital Elements at Epoch 2459200.5 (2020-Dec-17.0) TDB
Reference: JPL 28 (heliocentric ecliptic J2000)
Element | Value | Uncertainty (1-sigma) | Units |
e | .08936364471400654 | 4.2254e-08 | |
a | 2.238870422262366 | 6.3486e-09 | au |
q | 2.038796801286614 | 9.2678e-08 | au |
i | 3.315129663653554 | 4.5774e-06 | deg |
node | 16.38649596581891 | 5.0281e-05 | deg |
peri | 198.1362306488243 | 5.4235e-05 | deg |
M | 157.4974544903062 | 2.1317e-05 | deg |
tp | 2458665.180697423428 (2019-Jun-30.68069742) | 7.2078e-05 | TDB |
period | 1223.606753209001 3.35 | 5.2045e-06 1.425e-08 | d yr |
n | .2942121715623691 | 1.2514e-09 | deg/d |
Q | 2.438944043238118 | 6.9159e-09 | au |
|
| | Orbit Determination Parameters
Additional Information
|